Flag for Germany Weather past 2 weeks in Kerpen, North Rhine-Westphalia, Germany

Now
82 °F

Passing clouds.


Feels Like: 82 °F
Forecast: 63 / 74 °F
Wind: 5 mph from Southeast

Location: Noervenich

Current Time: Aug 3, 2015 at 11:32:47 AM

Latest Report: Aug 3, 2015 at 10:20 AM


Visibility: N/A

Pressure: 29.98 "Hg

Humidity: 42%

Dew point: 57 °F

Location of KerpenLocation

Historic Weather in Kerpen — Graph

°F

Kerpen temperature yesterday

Maximum temperature yesterday: 81 °F (at 6:20 PM)
Minimum temperature yesterday: 50 °F (at 6:20 AM)
Average temperature yesterday: 67 °F

Past Weeks' High & Low Weather Summary

 TemperatureHumidityPressure
High82 °F (Jul 21, 6:20 PM)100% (Jul 30, 10:20 PM)30.15 "Hg (Jul 30, 10:20 PM)
Low46 °F (Jul 31, 6:20 AM)34% (Aug 2, 3:20 PM)29.53 "Hg (Jul 25, 7:20 AM)
Average64 °F71%29.91 "Hg
* Reported Jul 19 10:20 AM — Aug 3 10:20 AM, Kerpen, Weather by CustomWeather, © 2015

Note: Actual official high and low records may vary slightly from our data, if they occured in-between our weather recording intervals... More about our weather records

Advertising

Kerpen weather history for previous 24 hours

 ConditionsComfort  
Time TempWeatherWind HumidityBarometerVisibility
10:20 AM
Mon, Aug 3
82 °FPassing clouds.5 mph42%29.98 "HgN/A
9:20 AM75 °FPassing clouds.5 mph54%29.98 "HgN/A
8:20 AM68 °FPassing clouds.3 mph64%29.98 "HgN/A
7:20 AM63 °FPassing clouds.3 mph68%29.98 "HgN/A
6:20 AM63 °FPassing clouds.5 mph68%29.98 "HgN/A
5:20 AM61 °FPassing clouds.5 mph72%29.98 "HgN/A
4:20 AM59 °FPassing clouds.3 mph82%30.01 "HgN/A
3:20 AM59 °FPassing clouds.2 mph82%30.01 "HgN/A
2:20 AM63 °FPassing clouds.2 mph73%30.01 "HgN/A
1:20 AM63 °FPassing clouds.2 mph73%30.01 "HgN/A
12:20 AM63 °FPassing clouds.2 mph73%30.04 "HgN/A
11:20 PM
Sun, Aug 2
64 °FPassing clouds.No wind68%30.04 "HgN/A
10:20 PM68 °FPassing clouds.No wind60%30.04 "HgN/A
9:20 PM73 °FPartly sunny.2 mph50%30.04 "HgN/A
8:20 PM77 °FPartly sunny.3 mph42%30.04 "HgN/A
7:20 PM79 °FPartly sunny.5 mph37%30.04 "HgN/A
6:20 PM81 °FPartly sunny.5 mph34%30.04 "HgN/A
5:20 PM79 °FPartly sunny.3 mph34%30.07 "HgN/A
4:20 PM79 °FPartly sunny.3 mph34%30.07 "HgN/A
3:20 PM79 °FPartly sunny.3 mph34%30.09 "HgN/A
2:20 PM77 °FPartly sunny.2 mph39%30.09 "HgN/A
1:20 PM75 °FPartly sunny.2 mph41%30.12 "HgN/A
12:20 PM73 °FPartly sunny.2 mph44%30.12 "HgN/A
11:20 AM70 °FMild.2 mph53%30.15 "Hg4 mi
Weather by CustomWeather, © 2015

See weather overviewHow to use our weather pages